Omaha Offutt, NE

9:23 PM CDT on May 20, 2018 (GMT -0500)
Offutt Air Force Base

Weather History for KOFF - March, 2013

Change the Weather History Date:

Saturday, March 9, 2013

  Actual Average Record
Temperature  
Mean Temperature 45 °F -  
Max Temperature 53 °F 40 °F 70 °F (2014)
Min Temperature 37 °F 22 °F 5 °F (2003)
Degree Days  
Heating Degree Days 20    
Moisture  
Dew Point 45 °F    
Average Humidity 98    
Maximum Humidity 100    
Minimum Humidity 91    
Precipitation  
Precipitation 0.09 in - - ()
Sea Level Pressure  
Sea Level Pressure 29.73 in    
Wind  
Wind Speed 9 mph (ESE)    
Max Wind Speed 22 mph    
Max Gust Speed 29 mph    
Visibility 10 miles    
Events Rain , Thunderstorm    
Averages and records for this station are not official NWS values.
T = Trace of Precipitation, MM = Missing Value Source: NWS Daily Summary

Daily Weather History Graph

Daily Weather History Graph

Search for Another Location

Airport or City:

Astronomy

Mar. 09, 2013 Rise Set
Actual Time 6:44 AM CST 6:24 PM CST
Civil Twilight 6:17 AM CST 6:51 PM CST
Nautical Twilight 5:45 AM CST 7:23 PM CST
Astronomical Twilight 5:13 AM CST 7:55 PM CST
Moon 5:10 AM CST (3/9) 4:26 PM CST (3/9)
Length of Visible Light 12h 34m
Length of Day
11h 39m
Waning Crescent, 5% of the Moon is Illuminated
Mar 9
Waning Crescent
Mar 11
New
Mar 19
First Quarter
Mar 27
Full
Apr 2
Last Quarter

Hourly Weather History & Observations

Time (CST) Temp. Windchill Dew Point Humidity Pressure Visibility Wind Dir Wind Speed Gust Speed Precip Events Conditions
12:17 AM 42.8 °F 37.5 °F 41.0 °F 93% 29.91 in 10.0 mi SE 9.2 mph - N/A Rain , Thunderstorm Light Thunderstorms and Rain
12:32 AM 42.8 °F 39.3 °F 41.0 °F 93% 29.92 in 10.0 mi SSE 5.8 mph - N/A Rain , Thunderstorm Light Rain
12:34 AM 42.8 °F 39.3 °F 41.0 °F 93% 29.92 in 10.0 mi SSE 5.8 mph - N/A Thunderstorm Overcast
12:36 AM 42.8 °F 40.1 °F 41.0 °F 93% 29.92 in 10.0 mi SSE 4.6 mph - N/A Rain , Thunderstorm Light Rain
12:55 AM 41.9 °F 39.0 °F 41.5 °F 99% 29.91 in 8.0 mi ESE 4.6 mph - 0.07 in Rain Light Rain
1:11 AM 41.0 °F 38.0 °F 41.0 °F 100% 29.91 in 10.0 mi East 4.6 mph - N/A   Overcast
1:23 AM 41.0 °F - 41.0 °F 100% 29.91 in 9.0 mi Calm Calm - N/A Rain Light Rain
1:43 AM 41.0 °F 36.4 °F 41.0 °F 100% 29.91 in 10.0 mi East 6.9 mph - N/A   Overcast
1:55 AM 41.7 °F 37.3 °F 41.5 °F 99% 29.91 in 10.0 mi East 6.9 mph - 0.01 in   Overcast
2:29 AM 42.8 °F 38.0 °F 41.0 °F 93% 29.88 in 9.0 mi ESE 8.1 mph - N/A   Overcast
2:38 AM 42.8 °F 38.0 °F 41.0 °F 93% 29.88 in 7.0 mi East 8.1 mph - N/A   Light Drizzle
2:40 AM 42.8 °F 37.5 °F 41.0 °F 93% 29.87 in 8.0 mi East 9.2 mph - N/A   Overcast
2:55 AM 42.1 °F 37.1 °F 41.9 °F 99% 29.86 in 10.0 mi ESE 8.1 mph - 0.00 in   Overcast
3:09 AM 42.8 °F 38.0 °F 42.8 °F 100% 29.85 in 10.0 mi ESE 8.1 mph - N/A   Overcast
3:18 AM 42.8 °F 38.0 °F 42.8 °F 100% 29.84 in 10.0 mi East 8.1 mph - N/A   Overcast
3:44 AM 42.8 °F 37.0 °F 42.8 °F 100% 29.83 in 10.0 mi ESE 10.4 mph - N/A Thunderstorm Thunderstorm
3:55 AM 42.8 °F 37.5 °F 42.4 °F 99% 29.83 in 10.0 mi ESE 9.2 mph - 0.00 in Thunderstorm Thunderstorm
4:00 AM 42.8 °F 36.6 °F 42.8 °F 100% 29.83 in 10.0 mi ESE 11.5 mph - N/A Rain , Thunderstorm Light Thunderstorms and Rain
4:12 AM 42.8 °F 37.0 °F 42.8 °F 100% 29.82 in 10.0 mi East 10.4 mph - N/A Rain Light Rain
4:14 AM 42.8 °F 37.0 °F 42.8 °F 100% 29.82 in 10.0 mi East 10.4 mph - N/A   Overcast
4:38 AM 42.8 °F 36.2 °F 42.8 °F 100% 29.81 in 10.0 mi ESE 12.7 mph - N/A Rain Light Rain
4:48 AM 42.8 °F 36.6 °F 42.8 °F 100% 29.81 in 10.0 mi ESE 11.5 mph - N/A   Mostly Cloudy
4:49 AM 42.8 °F 36.6 °F 42.8 °F 100% 29.81 in 10.0 mi ESE 11.5 mph - N/A   Scattered Clouds
4:52 AM 42.8 °F 36.6 °F 42.8 °F 100% 29.81 in 10.0 mi East 11.5 mph - N/A   Mostly Cloudy
4:55 AM 43.5 °F 37.9 °F 43.0 °F 98% 29.81 in 10.0 mi East 10.4 mph - 0.00 in   Mostly Cloudy
5:02 AM 44.6 °F 39.2 °F 42.8 °F 93% 29.81 in 10.0 mi East 10.4 mph - N/A   Mostly Cloudy
5:11 AM 44.6 °F 40.2 °F 42.8 °F 93% 29.81 in 10.0 mi East 8.1 mph - N/A Rain Light Rain
5:20 AM 44.6 °F 39.7 °F 42.8 °F 93% 29.81 in 10.0 mi East 9.2 mph - N/A   Overcast
5:38 AM 42.8 °F 36.6 °F 42.8 °F 100% 29.80 in 10.0 mi ESE 11.5 mph - N/A   Overcast
5:49 AM 42.8 °F 37.0 °F 42.8 °F 100% 29.79 in 10.0 mi East 10.4 mph - N/A Rain Light Rain
5:55 AM 43.2 °F 37.0 °F 43.0 °F 99% 29.79 in 10.0 mi ESE 11.5 mph - 0.00 in Rain Light Rain
6:05 AM 42.8 °F 36.2 °F 42.8 °F 100% 29.78 in 10.0 mi ESE 12.7 mph - N/A   Overcast
6:55 AM 43.3 °F 36.8 °F 42.6 °F 97% 29.78 in 10.0 mi ESE 12.7 mph - 0.00 in   Overcast
7:55 AM 44.1 °F 37.1 °F 42.6 °F 95% 29.74 in 10.0 mi ESE 15.0 mph - N/A   Overcast
8:55 AM 45.9 °F 38.8 °F 43.3 °F 91% 29.71 in 10.0 mi ESE 17.3 mph - N/A   Overcast
9:55 AM 45.7 °F 37.6 °F 44.2 °F 95% 29.67 in 10.0 mi ESE 21.9 mph - N/A   Overcast
10:20 AM 46.4 °F 39.8 °F 46.4 °F 100% 29.66 in 10.0 mi ESE 16.1 mph - N/A Rain Light Rain
10:27 AM 46.4 °F 40.7 °F 46.4 °F 100% 29.67 in 10.0 mi SE 12.7 mph - N/A Rain Light Rain
10:30 AM 46.4 °F 40.7 °F 46.4 °F 100% 29.65 in 10.0 mi ESE 12.7 mph - N/A   Mostly Cloudy
10:55 AM 47.3 °F - 46.9 °F 99% 29.65 in 10.0 mi SE 12.7 mph 21.9 mph 0.00 in   Overcast
11:04 AM 48.2 °F - 48.2 °F 100% 29.65 in 10.0 mi SE 11.5 mph - N/A   Overcast
11:44 AM 50.0 °F - 48.2 °F 94% 29.67 in 10.0 mi South 8.1 mph - N/A   Overcast
11:55 AM 49.1 °F - 48.9 °F 99% 29.67 in 10.0 mi SSE 9.2 mph - N/A   Overcast
12:11 PM 50.0 °F - 48.2 °F 94% 29.68 in 10.0 mi SSE 11.5 mph 18.4 mph N/A   Overcast
12:55 PM 49.5 °F - 49.3 °F 99% 29.65 in 9.0 mi East 8.1 mph - N/A   Overcast
1:29 PM 50.0 °F - 50.0 °F 100% 29.64 in 9.0 mi ESE 10.4 mph - N/A   Overcast
1:48 PM 50.0 °F - 50.0 °F 100% 29.63 in 10.0 mi SE 9.2 mph - N/A   Overcast
1:55 PM 51.4 °F - 51.1 °F 99% 29.62 in 10.0 mi SE 5.8 mph - N/A   Overcast
2:55 PM 52.7 °F - 52.3 °F 99% 29.63 in 10.0 mi SE 10.4 mph - N/A   Overcast
3:26 PM 51.8 °F - 51.8 °F 100% 29.64 in 10.0 mi SSE 10.4 mph - N/A   Overcast
3:48 PM 51.8 °F - 51.8 °F 100% 29.62 in 10.0 mi ESE 6.9 mph - N/A Rain Light Rain
3:55 PM 52.2 °F - 52.0 °F 99% 29.61 in 10.0 mi ESE 8.1 mph - 0.00 in Rain Light Rain
4:02 PM 51.8 °F - 51.8 °F 100% 29.60 in 10.0 mi ESE 10.4 mph - N/A   Mostly Cloudy
4:03 PM 51.8 °F - 51.8 °F 100% 29.60 in 10.0 mi ESE 10.4 mph - N/A   Mostly Cloudy
4:04 PM 51.8 °F - 51.8 °F 100% 29.60 in 10.0 mi ESE 11.5 mph - N/A   Scattered Clouds
4:08 PM 51.8 °F - 51.8 °F 100% 29.60 in 10.0 mi ESE 11.5 mph - N/A Rain Light Rain
4:29 PM 51.8 °F - 51.8 °F 100% 29.56 in 10.0 mi ESE 17.3 mph - N/A   Scattered Clouds
4:55 PM 53.2 °F - 53.1 °F 99% 29.56 in 10.0 mi SE 16.1 mph - 0.00 in   Mostly Cloudy
5:48 PM 53.6 °F - 51.8 °F 94% 29.58 in 10.0 mi SE 9.2 mph - N/A   Overcast
5:55 PM 53.1 °F - 52.9 °F 99% 29.58 in 10.0 mi SE 11.5 mph - N/A   Overcast
6:55 PM 52.3 °F - 52.2 °F 99% 29.62 in 10.0 mi Calm Calm - N/A   Overcast
6:59 PM 51.8 °F - 51.8 °F 100% 29.62 in 10.0 mi South 3.5 mph - N/A   Overcast
7:49 PM 51.8 °F - 51.8 °F 100% 29.62 in 10.0 mi Calm Calm - N/A   Overcast
7:55 PM 51.4 °F - 51.1 °F 99% 29.62 in 10.0 mi North 3.5 mph - N/A   Overcast
8:33 PM 50.0 °F - 50.0 °F 100% 29.64 in 10.0 mi North 5.8 mph - N/A   Overcast
8:43 PM 50.0 °F - 50.0 °F 100% 29.65 in 10.0 mi WNW 15.0 mph 18.4 mph N/A   Overcast
8:52 PM 48.2 °F - 48.2 °F 100% 29.66 in 10.0 mi NW 10.4 mph - N/A   Overcast
8:55 PM 47.3 °F - 47.1 °F 99% 29.66 in 8.0 mi North 10.4 mph - N/A   Overcast
9:21 PM 42.8 °F 35.1 °F 42.8 °F 100% 29.67 in 10.0 mi NW 16.1 mph 21.9 mph N/A Rain Light Rain
9:43 PM 41.0 °F 32.5 °F 41.0 °F 100% 29.68 in 10.0 mi NW 17.3 mph 21.9 mph N/A Rain Light Rain
9:55 PM 41.0 °F 33.1 °F 40.8 °F 99% 29.69 in 7.0 mi NNW 15.0 mph 24.2 mph 0.00 in Rain Light Rain
10:55 PM 39.6 °F 32.1 °F 39.4 °F 99% 29.71 in 10.0 mi NNW 12.7 mph 20.7 mph 0.01 in Rain Light Rain
11:21 PM 37.4 °F 27.8 °F 37.4 °F 100% 29.72 in 10.0 mi NNW 17.3 mph 28.8 mph N/A Rain Light Rain
11:41 PM 37.4 °F 28.5 °F 37.4 °F 100% 29.71 in 10.0 mi North 15.0 mph 21.9 mph N/A   Overcast
11:55 PM 37.0 °F 27.4 °F 36.7 °F 99% 29.69 in 10.0 mi North 17.3 mph 27.6 mph 0.00 in   Light Drizzle
11:59 PM 37.4 °F 28.9 °F 37.4 °F 100% 29.68 in 10.0 mi North 13.8 mph 27.6 mph N/A   Light Drizzle